Date,TemperatureHighF,TemperatureAvgF,TemperatureLowF,DewpointHighF,DewpointAvgF,DewpointLowF,HumidityHigh,HumidityAvg,HumidityLow,PressureMaxIn,PressureMinIn,WindSpeedMaxMPH,WindSpeedAvgMPH,GustSpeedMaxMPH,PrecipitationSumIn
2013-10-1,77,70,65,71,67,64,97,91,80,29.96,29.87,5,1,0,0.01
2013-10-2,82,72,68,74,69,68,98,92,76,29.99,29.92,7,1,0,0.33
2013-10-3,87,75,66,73,69,65,98,84,60,29.94,29.82,9,2,0,0.04
2013-10-4,89,75,69,75,70,68,94,86,62,29.94,29.84,7,2,0,0.00
2013-10-5,82,72,64,76,70,62,96,92,78,29.89,29.74,13,2,0,1.43
2013-10-6,71,60,48,60,49,43,92,70,42,29.87,29.74,12,3,0,0.01
2013-10-7,74,58,43,52,48,42,98,73,39,30.07,29.85,13,3,0,0.00
2013-10-8,81,59,44,57,49,44,99,74,37,30.15,30.00,8,1,0,0.00
2013-10-9,87,63,44,64,54,43,98,77,41,30.11,29.98,5,1,0,0.00
2013-10-10,85,67,55,67,60,54,98,81,47,30.08,29.92,7,1,0,0.00
2013-10-11,85,67,53,65,59,52,99,78,46,29.97,29.82,7,2,0,0.00
2013-10-12,75,64,60,68,62,58,98,91,78,30.07,29.88,5,1,0,0.83
2013-10-13,77,62,49,59,50,44,98,70,32,30.27,30.08,11,3,0,0.00
2013-10-14,75,60,47,60,52,44,94,78,49,30.23,29.98,5,1,0,0.00
2013-10-15,70,66,62,65,63,60,97,91,84,29.98,29.82,7,3,0,0.30
2013-10-16,71,58,49,59,50,47,95,75,45,29.96,29.85,8,3,0,0.01
2013-10-17,71,55,45,52,48,44,96,80,46,29.94,29.85,7,2,0,0.06
2013-10-18,77,56,40,53,47,40,99,74,37,30.00,29.84,9,2,0,0.02
2013-10-19,66,52,40,48,41,36,95,73,35,29.98,29.86,9,3,0,0.07
2013-10-20,70,52,39,47,43,38,99,75,43,30.00,29.87,14,2,0,0.00
2013-10-21,72,53,41,51,46,40,98,79,46,30.00,29.88,9,2,0,0.00
2013-10-22,65,49,34,48,40,33,98,75,42,30.01,29.74,10,2,0,0.11
2013-10-23,60,48,42,43,36,31,84,66,37,30.08,29.87,12,4,0,0.01
2013-10-24,55,45,34,40,33,26,89,65,34,30.35,30.05,15,3,0,0.00
2013-10-25,63,41,26,35,28,25,98,68,24,30.49,30.22,6,1,0,0.00
2013-10-26,63,47,33,47,38,30,95,74,52,30.22,29.95,10,3,0,0.00
2013-10-27,73,50,32,42,37,30,97,68,26,30.07,29.93,4,1,0,0.00
2013-10-28,76,53,35,51,44,34,99,77,41,30.16,29.99,6,1,0,0.00
2013-10-29,61,53,43,60,52,42,99,97,94,30.20,30.00,7,1,0,0.45
2013-10-30,77,68,61,68,64,60,99,89,70,30.04,29.82,14,4,0,0.02
2013-10-31,68,63,52,66,62,51,99,96,94,29.81,29.32,14,4,0,4.14